Weather History for Savannah, GA

Change the Weather History Date:

Thursday, December 6, 2012

  Actual Average Record
Temperature  
Mean Temperature 61 °F 54 °F  
Max Temperature 66 °F 65 °F 83 °F (2013)
Min Temperature 56 °F 43 °F 23 °F (1937)
Degree Days  
Heating Degree Days 4 12  
Month to date heating degree days 15 68  
Since 1 July heating degree days 348 335  
Cooling Degree Days 0 0  
Month to date cooling degree days 0 3  
Year to date cooling degree days 2664 2452  
Growing Degree Days 10 (Base 50)    
Moisture  
Dew Point 54 °F    
Average Humidity 80    
Maximum Humidity 93    
Minimum Humidity 67    
Precipitation  
Precipitation 0.00 in 0.09 in 3.01 in (1880)
Month to date precipitation 0.00 0.52  
Year to date precipitation 38.30 45.53  
Snow  
Snow 0.00 in 0.00 in - ()
Month to date snowfall 0.0  
Since 1 July snowfall 0.0 0.0  
Snow Depth 0.00 in    
Sea Level Pressure  
Sea Level Pressure 30.13 in    
Wind  
Wind Speed 7 mph (ENE)    
Max Wind Speed 14 mph    
Max Gust Speed 17 mph    
Visibility 10 miles    
Events      
T = Trace of Precipitation, MM = Missing Value Source: NWS Daily Summary

Daily Weather History Graph

Daily Weather History Graph

Search for Another Location

Airport:

Trip Planner

Search our weather history database for the weather conditions in past years. The results will help you decide how hot, cold, wet, or windy it might be!

Date:

Astronomy

Dec. 06, 2012 Rise Set
Actual Time 7:12 AM EST 5:19 PM EST
Civil Twilight 6:45 AM EST 5:46 PM EST
Nautical Twilight 6:14 AM EST 6:17 PM EST
Astronomical Twilight 5:45 AM EST 6:46 PM EST
Moon No Moon Rise 12:23 PM EST (12/6)
Length of Visible Light 11h 01m
Length of Day
10h 07m
Waning Gibbous, 49% of the Moon is Illuminated
Dec 6
Waning Gibbous
Dec 13
New
Dec 20
First Quarter
Dec 28
Full
Jan 4
Last Quarter

Hourly Weather History & Observations

Time (EST) Temp. Dew Point Humidity Pressure Visibility Wind Dir Wind Speed Gust Speed Precip Events Conditions
12:53 AM 57.9 °F 54.0 °F 87% 30.11 in 10.0 mi Calm Calm - N/A   Mostly Cloudy
1:53 AM 57.0 °F 53.1 °F 87% 30.12 in 10.0 mi Calm Calm - N/A   Overcast
2:53 AM 57.0 °F 54.0 °F 89% 30.10 in 10.0 mi Calm Calm - N/A   Overcast
3:53 AM 57.9 °F 54.0 °F 87% 30.11 in 10.0 mi Calm Calm - N/A   Overcast
4:53 AM 57.9 °F 53.1 °F 84% 30.11 in 10.0 mi North 5.8 mph - N/A   Overcast
5:53 AM 57.0 °F 53.1 °F 87% 30.11 in 10.0 mi NNE 4.6 mph - N/A   Overcast
6:53 AM 57.0 °F 54.0 °F 89% 30.12 in 10.0 mi NE 9.2 mph - N/A   Mostly Cloudy
7:53 AM 57.0 °F 54.0 °F 89% 30.14 in 9.0 mi NE 6.9 mph - N/A   Overcast
8:06 AM 57.2 °F 53.6 °F 88% 30.14 in 9.0 mi NE 6.9 mph - N/A   Overcast
8:34 AM 57.2 °F 55.4 °F 94% 30.15 in 8.0 mi NE 9.2 mph - N/A   Overcast
8:53 AM 59.0 °F 55.0 °F 87% 30.16 in 8.0 mi NE 8.1 mph - N/A   Overcast
9:53 AM 60.1 °F 55.9 °F 86% 30.17 in 9.0 mi NE 9.2 mph - N/A   Overcast
10:26 AM 62.6 °F 55.4 °F 77% 30.17 in 9.0 mi ENE 9.2 mph - N/A   Overcast
10:41 AM 62.6 °F 55.4 °F 77% 30.17 in 10.0 mi ENE 9.2 mph - N/A   Overcast
10:53 AM 63.0 °F 55.9 °F 78% 30.17 in 10.0 mi East 10.4 mph - N/A   Overcast
11:14 AM 64.4 °F 55.4 °F 73% 30.16 in 10.0 mi East 8.1 mph - N/A   Overcast
11:53 AM 64.9 °F 55.9 °F 73% 30.15 in 10.0 mi ENE 8.1 mph - N/A   Mostly Cloudy
12:12 PM 66.2 °F 55.4 °F 68% 30.14 in 10.0 mi East 8.1 mph - N/A   Overcast
12:39 PM 64.4 °F 55.4 °F 73% 30.13 in 10.0 mi NE 8.1 mph - N/A   Overcast
12:53 PM 64.9 °F 55.9 °F 73% 30.12 in 10.0 mi East 6.9 mph - N/A   Overcast
1:08 PM 66.2 °F 55.4 °F 68% 30.12 in 10.0 mi ENE 8.1 mph - N/A   Overcast
1:32 PM 66.2 °F 55.4 °F 68% 30.11 in 10.0 mi ENE 9.2 mph - N/A   Overcast
1:53 PM 66.0 °F 55.0 °F 68% 30.10 in 10.0 mi East 9.2 mph - N/A   Overcast
2:53 PM 64.9 °F 54.0 °F 68% 30.09 in 10.0 mi NE 9.2 mph - N/A   Overcast
3:53 PM 64.9 °F 54.0 °F 68% 30.10 in 10.0 mi NE 11.5 mph - N/A   Overcast
4:53 PM 64.0 °F 54.0 °F 70% 30.10 in 10.0 mi ENE 8.1 mph - N/A   Mostly Cloudy
5:53 PM 63.0 °F 53.1 °F 70% 30.10 in 10.0 mi ENE 6.9 mph - N/A   Mostly Cloudy
6:53 PM 62.1 °F 53.1 °F 72% 30.12 in 10.0 mi ENE 11.5 mph - N/A   Mostly Cloudy
7:53 PM 61.0 °F 53.1 °F 75% 30.13 in 10.0 mi ENE 8.1 mph - N/A   Mostly Cloudy
8:35 PM 60.8 °F 53.6 °F 77% 30.13 in 10.0 mi ENE 9.2 mph - N/A   Overcast
8:53 PM 60.1 °F 53.1 °F 78% 30.13 in 10.0 mi ENE 8.1 mph - N/A   Overcast
9:30 PM 60.8 °F 53.6 °F 77% 30.13 in 10.0 mi ENE 5.8 mph - N/A   Overcast
9:53 PM 59.0 °F 53.1 °F 81% 30.12 in 10.0 mi NE 10.4 mph - N/A   Overcast
10:53 PM 57.9 °F 52.0 °F 81% 30.11 in 10.0 mi NE 9.2 mph - N/A   Overcast
11:53 PM 57.9 °F 51.1 °F 78% 30.10 in 10.0 mi NE 9.2 mph - N/A   Overcast